DW7984 Weather Reports


Display with metric or nautical units.
time (UTC)temp
F
wind
direction
speed
MPH
gust
MPH
rain 1hr
in
rain 24hr
in
rain mn
in
humidity
%
barometer
mb
20240530034348 57 284 3.0 5.0 0.00 0.00 0.00 91 1013.3
20240530033829 57 283 3.0 6.0 0.00 0.00 0.00 91 1013.4
20240530033412 57 279 3.0 5.0 0.00 0.00 0.00 91 1013.5
20240530032901 57 278 3.0 4.0 0.00 0.00 0.00 91 1013.5
20240530032334 57 278 1.0 3.0 0.00 0.00 0.00 91 1013.5
20240530031855 57 278 1.0 4.0 0.00 0.00 0.00 91 1013.5
20240530031330 57 278 2.0 4.0 0.00 0.00 0.00 91 1013.5
20240530030837 57 359 2.0 4.0 0.00 0.00 0.00 91 1013.6
20240530030332 57 278 2.0 4.0 0.00 0.00 0.00 91 1013.6
20240530025843 57 277 2.0 3.0 0.00 0.00 0.00 91 1013.7
20240529224837 60 271 1.0 4.0 0.00 0.00 0.00 90 1015.9
20240529224329 60 271 2.0 4.0 0.00 0.00 0.00 89 1016.0
20240529223833 60 270 1.0 3.0 0.00 0.00 0.00 90 1016.0
20240529223327 61 273 2.0 3.0 0.00 0.00 0.00 89 1016.1
20240529222834 61 270 2.0 3.0 0.00 0.00 0.00 89 1016.0
20240529222328 61 271 0.0 3.0 0.00 0.00 0.00 89 1016.1
20240529221836 61 271 2.0 3.0 0.00 0.00 0.00 89 1016.0
20240529221350 61 272 2.0 3.0 0.00 0.00 0.00 89 1016.0
20240529220838 61 272 2.0 3.0 0.00 0.00 0.00 89 1016.0
20240529220332 61 272 2.0 3.0 0.00 0.00 0.00 88 1016.0
20240529215845 62 270 2.0 3.0 0.00 0.00 0.00 88 1016.1
20240529215340 62 272 1.0 3.0 0.00 0.00 0.00 88 1016.1
20240529214830 62 270 1.0 2.0 0.00 0.00 0.00 88 1016.1
20240529214412 62 272 1.0 3.0 0.00 0.00 0.00 88 1016.2
20240529213834 62 271 2.0 3.0 0.00 0.00 0.00 87 1016.1
20240529213328 62 272 2.0 3.0 0.00 0.00 0.00 87 1016.2
20240529212836 63 272 2.0 4.0 0.00 0.00 0.00 87 1016.2
20240529212353 63 270 3.0 4.0 0.00 0.00 0.00 87 1016.2
20240529211832 63 233 2.0 3.0 0.00 0.00 0.00 87 1016.2
20240529211326 63 230 1.0 3.0 0.00 0.00 0.00 86 1016.3
20240529210838 63 229 1.0 3.0 0.00 0.00 0.00 86 1016.3
20240529210354 63 229 1.0 3.0 0.00 0.00 0.00 85 1016.2
20240529205835 64 231 1.0 3.0 0.00 0.00 0.00 84 1016.2
20240529205329 64 231 2.0 3.0 0.00 0.00 0.00 83 1016.1
20240529204837 65 229 0.0 0.0 0.00 0.00 0.00 83 1016.0
20240529204353 65 231 0.0 0.0 0.00 0.00 0.00 83 1016.1
20240529203859 65 231 0.0 0.0 0.00 0.00 0.00 83 1016.1
20240529203333 65 230 0.0 0.0 0.00 0.00 0.00 82 1016.1
20240529202838 66 230 0.0 0.0 0.00 0.00 0.00 82 1016.1
20240529202333 66 230 0.0 0.0 0.00 0.00 0.00 81 1016.0
20240529201840 67 231 0.0 0.0 0.00 0.00 0.00 80 1015.9
20240529201335 67 230 0.0 0.0 0.00 0.00 0.00 80 1016.0
20240529200841 67 229 0.0 0.0 0.00 0.00 0.00 79 1016.0
20240529200336 68 231 0.0 3.0 0.00 0.00 0.00 79 1016.0
20240529195842 68 231 1.0 4.0 0.00 0.00 0.00 79 1015.9
20240529195343 68 231 3.0 4.0 0.00 0.00 0.00 78 1015.9
20240529194833 69 230 2.0 3.0 0.00 0.00 0.00 78 1015.8
20240529194407 69 230 1.0 5.0 0.00 0.00 0.00 78 1015.7
20240529193827 69 230 3.0 5.0 0.00 0.00 0.00 77 1015.8
20240529193412 69 201 2.0 5.0 0.00 0.00 0.00 76 1015.7
20240529192832 69 190 3.0 5.0 0.00 0.00 0.00 75 1015.7
20240529192327 70 207 2.0 6.0 0.00 0.00 0.00 74 1015.7
20240529191834 70 201 2.0 6.0 0.00 0.00 0.00 74 1015.7
20240529191350 70 178 2.0 7.0 0.00 0.00 0.00 73 1015.6
20240529190833 71 213 4.0 7.0 0.00 0.00 0.00 73 1015.6
20240529190327 71 229 3.0 7.0 0.00 0.00 0.00 72 1015.7
20240529185857 71 204 3.0 7.0 0.00 0.00 0.00 71 1015.6
20240529185351 72 168 3.0 7.0 0.00 0.00 0.00 70 1015.7
20240529184833 72 169 1.0 8.0 0.00 0.00 0.00 69 1015.6
20240529184329 73 206 2.0 6.0 0.00 0.00 0.00 68 1015.6
20240529183834 73 187 3.0 6.0 0.00 0.00 0.00 67 1015.5
20240529183349 73 210 4.0 6.0 0.00 0.00 0.00 65 1015.5
20240529182831 74 214 4.0 8.0 0.00 0.00 0.00 64 1015.5
20240529182325 74 207 5.0 8.0 0.00 0.00 0.00 62 1015.5
20240529181829 75 238 1.0 7.0 0.00 0.00 0.00 61 1015.5
20240529181347 75 208 4.0 7.0 0.00 0.00 0.00 61 1015.5
20240529180853 75 222 3.0 8.0 0.00 0.00 0.00 61 1015.6
20240529180330 75 213 5.0 8.0 0.00 0.00 0.00 61 1015.6
20240529175904 75 130 2.0 10.0 0.00 0.00 0.00 61 1015.5
20240529175410 75 208 6.0 11.0 0.00 0.00 0.00 61 1015.5
20240529174833 75 228 7.0 9.0 0.00 0.00 0.00 60 1015.4
20240529174353 75 180 5.0 9.0 0.00 0.00 0.00 60 1015.4
20240529173837 75 93 3.0 9.0 0.00 0.00 0.00 59 1015.3
20240529173333 76 174 4.0 9.0 0.00 0.00 0.00 60 1015.2
20240529172842 76 258 6.0 9.0 0.00 0.00 0.00 59 1015.3
20240529172401 76 218 3.0 9.0 0.00 0.00 0.00 59 1015.3
20240529171851 77 217 5.0 9.0 0.00 0.00 0.00 58 1015.2
20240529171413 76 246 5.0 8.0 0.00 0.00 0.00 58 1015.3
20240529170833 76 193 5.0 10.0 0.00 0.00 0.00 60 1015.4
20240529170355 76 226 5.0 12.0 0.00 0.00 0.00 59 1015.3
20240529165843 76 224 6.0 12.0 0.00 0.00 0.00 58 1015.4
20240529165333 77 216 4.0 12.0 0.00 0.00 0.00 56 1015.5
20240529164838 78 196 5.0 12.0 0.00 0.00 0.00 56 1015.5
20240529164353 78 210 5.0 10.0 0.00 0.00 0.00 56 1015.4
20240529163834 77 233 5.0 9.0 0.00 0.00 0.00 58 1015.4
20240529163350 77 225 4.0 11.0 0.00 0.00 0.00 58 1015.4
20240529162902 77 197 7.0 11.0 0.00 0.00 0.00 59 1015.5
20240529162333 76 227 4.0 9.0 0.00 0.00 0.00 61 1015.4
20240529161329 77 224 7.0 10.0 0.00 0.00 0.00 60 1015.5
20240529160832 77 204 5.0 14.0 0.00 0.00 0.00 60 1015.5
20240529160349 77 258 9.0 14.0 0.00 0.00 0.00 61 1015.6
20240529155830 76 208 8.0 11.0 0.00 0.00 0.00 62 1015.6
20240529155325 76 162 6.0 12.0 0.00 0.00 0.00 63 1015.5
20240529154836 77 145 4.0 15.0 0.00 0.00 0.00 64 1015.4
20240529154352 77 197 8.0 15.0 0.00 0.00 0.00 64 1015.5
20240529153834 77 260 9.0 14.0 0.00 0.00 0.00 64 1015.5
20240529153329 76 241 7.0 13.0 0.00 0.00 0.00 65 1015.5
20240529152853 77 281 4.0 10.0 0.00 0.00 0.00 66 1015.5
20240529152325 77 220 4.0 10.0 0.00 0.00 0.00 66 1015.5
20240529151837 77 188 4.0 10.0 0.00 0.00 0.00 67 1015.6
20240529151332 77 133 3.0 14.0 0.00 0.00 0.00 65 1015.6
20240529150838 77 222 5.0 15.0 0.00 0.00 0.00 64 1015.7
20240529150352 78 253 6.0 15.0 0.00 0.00 0.00 64 1015.8
20240529145834 78 247 4.0 10.0 0.00 0.00 0.00 64 1015.8
20240529145327 78 189 3.0 10.0 0.00 0.00 0.00 64 1015.8
20240529144853 78 151 5.0 11.0 0.00 0.00 0.00 64 1015.8
20240529144348 78 219 6.0 11.0 0.00 0.00 0.00 65 1015.8
20240529143858 77 129 4.0 8.0 0.00 0.00 0.00 66 1015.8
20240529143331 77 196 5.0 9.0 0.00 0.00 0.00 66 1015.9
20240529142859 77 208 5.0 10.0 0.00 0.00 0.00 67 1016.0
20240529142353 77 164 5.0 10.0 0.00 0.00 0.00 67 1015.9
20240529141852 77 144 7.0 11.0 0.00 0.00 0.00 65 1016.0
20240529141326 78 195 3.0 9.0 0.00 0.00 0.00 66 1015.9
20240529140834 78 192 4.0 10.0 0.00 0.00 0.00 65 1015.9
20240529140327 78 228 6.0 13.0 0.00 0.00 0.00 66 1016.0
20240529135859 78 170 8.0 13.0 0.00 0.00 0.00 67 1016.1
20240529135352 77 179 7.0 11.0 0.00 0.00 0.00 68 1016.1
20240529134833 76 223 6.0 13.0 0.00 0.00 0.00 69 1016.0
20240529134347 76 241 5.0 13.0 0.00 0.00 0.00 70 1016.1
20240529133828 76 197 6.0 11.0 0.00 0.00 0.00 70 1016.1
20240529133414 76 104 4.0 12.0 0.00 0.00 0.00 69 1016.2
20240529132833 76 226 4.0 9.0 0.00 0.00 0.00 69 1016.1
20240529132329 76 180 4.0 11.0 0.00 0.00 0.00 70 1016.1
20240529131837 77 145 4.0 11.0 0.00 0.00 0.00 69 1016.1
20240529131332 77 130 7.0 10.0 0.00 0.00 0.00 68 1016.1
20240529130833 77 173 5.0 12.0 0.00 0.00 0.00 68 1016.1
20240529130326 77 172 8.0 12.0 0.00 0.00 0.00 67 1016.2
20240529125836 77 183 3.0 11.0 0.00 0.00 0.00 68 1016.3
20240529125329 77 198 6.0 13.0 0.00 0.00 0.00 68 1016.3
20240529124840 77 114 4.0 13.0 0.00 0.00 0.00 67 1016.4
20240529124353 77 120 6.0 12.0 0.00 0.00 0.00 69 1016.5
20240529123834 77 149 5.0 13.0 0.00 0.00 0.00 68 1016.5
20240529123349 76 133 4.0 11.0 0.00 0.00 0.00 68 1016.4
20240529122826 76 210 7.0 11.0 0.00 0.00 0.00 68 1016.6
20240529122340 77 169 6.0 12.0 0.00 0.00 0.00 68 1016.7
20240529121831 77 221 7.0 13.0 0.00 0.00 0.00 66 1016.7
20240529121414 77 246 8.0 17.0 0.00 0.00 0.00 66 1016.6
20240529120834 78 146 6.0 17.0 0.00 0.00 0.00 64 1016.6
20240529120350 78 219 3.0 10.0 0.00 0.00 0.00 65 1016.6
20240529115831 77 240 7.0 14.0 0.00 0.00 0.00 65 1016.6
20240529115326 78 174 5.0 9.0 0.00 0.00 0.00 64 1016.7
20240529114831 78 205 3.0 9.0 0.00 0.00 0.00 64 1016.7
20240529114325 78 130 5.0 14.0 0.00 0.00 0.00 62 1016.7
20240529113835 79 206 8.0 12.0 0.00 0.00 0.00 62 1016.7
20240529113349 79 173 3.0 11.0 0.00 0.00 0.00 62 1016.7
20240529112852 78 266 3.0 11.0 0.00 0.00 0.00 61 1016.6
20240529112348 78 199 3.0 8.0 0.00 0.00 0.00 61 1016.6
20240529111831 78 138 5.0 10.0 0.00 0.00 0.00 60 1016.6
20240529111341 79 138 4.0 10.0 0.00 0.00 0.00 59 1016.6
20240529110850 79 183 4.0 8.0 0.00 0.00 0.00 60 1016.8
20240529110411 78 208 4.0 10.0 0.00 0.00 0.00 61 1016.9
20240529105859 78 239 5.0 14.0 0.00 0.00 0.00 61 1016.9
20240529105331 77 240 8.0 14.0 0.00 0.00 0.00 62 1017.0
20240529104837 78 117 7.0 11.0 0.00 0.00 0.00 61 1017.0
20240529104330 78 190 4.0 8.0 0.00 0.00 0.00 61 1017.1
20240529103835 78 148 4.0 8.0 0.00 0.00 0.00 60 1017.1
20240529103329 78 224 3.0 7.0 0.00 0.00 0.00 62 1017.1
20240529102839 78 8 2.0 7.0 0.00 0.00 0.00 61 1017.1
20240529102331 77 250 4.0 8.0 0.00 0.00 0.00 61 1017.2
20240529101837 77 9 3.0 9.0 0.00 0.00 0.00 64 1017.2
20240529101331 76 37 4.0 9.0 0.00 0.00 0.00 63 1017.2
20240529100840 76 214 1.0 7.0 0.00 0.00 0.00 64 1017.2
20240529100334 76 181 5.0 8.0 0.00 0.00 0.00 64 1017.3
20240529095841 76 164 4.0 6.0 0.00 0.00 0.00 65 1017.3
20240529095330 75 154 1.0 10.0 0.00 0.00 0.00 67 1017.3
20240529094840 74 92 2.0 10.0 0.00 0.00 0.00 68 1017.4
20240529094353 74 112 3.0 7.0 0.00 0.00 0.00 68 1017.5
20240529093837 74 91 4.0 8.0 0.00 0.00 0.00 67 1017.5
20240529093330 74 95 6.0 8.0 0.00 0.00 0.00 67 1017.5
20240529092840 74 258 4.0 7.0 0.00 0.00 0.00 68 1017.5
20240529092333 74 129 3.0 9.0 0.00 0.00 0.00 67 1017.5
20240529091843 74 146 4.0 8.0 0.00 0.00 0.00 66 1017.6
20240529091402 74 180 4.0 8.0 0.00 0.00 0.00 67 1017.5
20240529090900 73 244 4.0 8.0 0.00 0.00 0.00 67 1017.4
20240529090332 74 89 2.0 8.0 0.00 0.00 0.00 67 1017.5
20240529085838 74 152 4.0 7.0 0.00 0.00 0.00 66 1017.6
20240529085352 73 187 2.0 6.0 0.00 0.00 0.00 68 1017.5
20240529084840 73 104 2.0 6.0 0.00 0.00 0.00 68 1017.6
20240529084333 72 113 2.0 6.0 0.00 0.00 0.00 70 1017.6
20240529083838 72 154 2.0 6.0 0.00 0.00 0.00 69 1017.7
20240529083329 71 208 2.0 6.0 0.00 0.00 0.00 71 1017.7
20240529082837 71 147 3.0 6.0 0.00 0.00 0.00 73 1017.8
20240529082331 70 239 3.0 7.0 0.00 0.00 0.00 74 1017.8
20240529081839 70 131 5.0 7.0 0.00 0.00 0.00 74 1017.9
20240529081352 70 90 4.0 7.0 0.00 0.00 0.00 74 1017.9
20240529080901 70 133 3.0 8.0 0.00 0.00 0.00 74 1017.9
20240529080335 70 112 4.0 8.0 0.00 0.00 0.00 74 1017.9
20240529075837 70 141 2.0 5.0 0.00 0.00 0.00 74 1018.1
20240529075352 70 141 2.0 7.0 0.00 0.00 0.00 75 1018.1
20240529074852 69 145 4.0 7.0 0.00 0.00 0.00 75 1018.2
20240529074412 69 120 2.0 6.0 0.00 0.00 0.00 75 1018.1
20240529073840 69 144 2.0 7.0 0.00 0.00 0.00 76 1018.1
20240529073331 68 156 4.0 7.0 0.00 0.00 0.00 77 1018.1
20240529072856 68 122 4.0 6.0 0.00 0.00 0.00 78 1018.2
20240529072329 68 146 2.0 5.0 0.00 0.00 0.00 77 1018.1
20240529071837 68 165 3.0 5.0 0.00 0.00 0.00 78 1018.2
20240529071354 67 152 3.0 5.0 0.00 0.00 0.00 79 1018.2
20240529070834 67 128 3.0 4.0 0.00 0.00 0.00 79 1018.2
20240529070328 67 79 1.0 4.0 0.00 0.00 0.00 80 1018.2
20240529065837 67 106 3.0 6.0 0.00 0.00 0.00 79 1018.1
20240529065327 67 104 4.0 6.0 0.00 0.00 0.00 76 1018.1
20240529064838 68 282 2.0 4.0 0.00 0.00 0.00 76 1018.2
20240529064331 67 284 1.0 2.0 0.00 0.00 0.00 77 1018.1
20240529063838 67 285 0.0 2.0 0.00 0.00 0.00 79 1018.1
20240529063332 66 285 1.0 2.0 0.00 0.00 0.00 81 1018.2
20240529062841 65 283 0.0 4.0 0.00 0.00 0.00 83 1018.2
20240529062332 64 359 1.0 4.0 0.00 0.00 0.00 85 1018.1
20240529061842 63 284 1.0 4.0 0.00 0.00 0.00 86 1018.2
20240529061335 62 286 1.0 3.0 0.00 0.00 0.00 88 1018.3
20240529060840 61 287 1.0 2.0 0.00 0.00 0.00 89 1018.3
20240529060333 60 288 1.0 3.0 0.00 0.00 0.00 89 1018.4
20240529055840 59 285 1.0 3.0 0.00 0.00 0.00 89 1018.4
20240529055354 59 287 2.0 3.0 0.00 0.00 0.00 90 1018.4
20240529054836 58 291 2.0 3.0 0.00 0.00 0.00 91 1018.5
20240529054329 57 292 2.0 3.0 0.00 0.00 0.00 91 1018.5
20240529053859 57 293 2.0 4.0 0.00 0.00 0.00 92 1018.5
20240529053327 56 285 1.0 2.0 0.00 0.00 0.00 92 1018.5
20240529052836 56 284 2.0 2.0 0.00 0.00 0.00 92 1018.5
20240529052331 56 285 0.0 3.0 0.00 0.00 0.00 92 1018.5
20240529051840 56 284 2.0 4.0 0.00 0.00 0.00 92 1018.5
20240529051356 55 285 3.0 4.0 0.00 0.00 0.00 92 1018.6
20240529050843 55 285 2.0 4.0 0.00 0.00 0.00 92 1018.5
20240529050338 55 283 2.0 3.0 0.00 0.00 0.00 92 1018.5
20240529045828 55 284 2.0 3.0 0.00 0.00 0.00 92 1018.6
20240529045339 55 285 1.0 3.0 0.00 0.00 0.00 92 1018.6
20240529044836 55 285 1.0 3.0 0.00 0.00 0.00 92 1018.6
20240529044352 55 285 2.0 3.0 0.00 0.00 0.00 93 1018.6
20240529043852 55 284 2.0 3.0 0.00 0.00 0.00 93 1018.6
20240529043355 55 284 1.0 3.0 0.00 0.00 0.00 93 1018.5
20240529042856 55 285 2.0 3.0 0.00 0.00 0.00 93 1018.5
20240529042329 54 284 1.0 2.0 0.00 0.00 0.00 92 1018.6
20240529041834 54 283 1.0 2.0 0.00 0.00 0.00 92 1018.6
20240529041328 54 284 1.0 3.0 0.00 0.00 0.00 92 1018.6
20240529040858 54 283 2.0 3.0 0.00 0.00 0.00 92 1018.6
20240529040330 54 286 1.0 3.0 0.00 0.00 0.00 92 1018.6
20240529035836 54 286 2.0 3.0 0.00 0.00 0.00 92 1018.6
20240529035352 54 284 1.0 2.0 0.00 0.00 0.00 92 1018.5
20240529035039 54 284 1.0 3.0 0.00 0.00 0.00 92 1018.5